Weather in Nuriner

Russia / Republic of Tatarstan     56°32′04″N   50°27′29″E
В апреле 2022 года жителям России запретили посещать сайт meteo.paraplan.net по решению Генеральной прокуратуры. Аудитория сайта уменьшилась в 10 раз. Владельцы сайта не видят смысла в поддержке погодного сервера в таких условиях. Сайт будет закрыт в октябре.
temp.,
°C
wind,
m/s
gust,
m/s
humid.,
%
clouds,
%
prec.,
mm/h
press.,
hPa
HPBL,
m
5 october, wed
wed500:00+9sse6144498 0.0 1025490
03:00+7s61481100 0.4 1025685
06:00+7sse71478100 0.7 1023732
09:00+8sse71459100 0.8 1023765
12:00+8sse71286100 0.1 1022723
15:00+9s6116887 0.1 1021707
18:00+7sse487590 0.2 1021205
21:00+8s51266100 0.3 1019384
6 october, thu
thu600:00+8s5106996 0.0 1018335
03:00+5sse49915 0.0 1017182
06:00+7s3998100 0.3 1015414
09:00+9sw359197 0.7 1015428
12:00+11wsw466674 0.2 10141149
15:00+10w566517 0.3 1015912
18:00+6w36859 0.0 101595
21:00+5w35937 0.0 1016109
7 october, fri
fri700:00+5wsw349573 0.0 101584
03:00+6wsw3695100 0.1 1015217
06:00+5wsw48955 0.1 1014227
09:00+8sw61073100 0.1 1013600
12:00+6ssw71387100 1.3 1011614
15:00+7wsw61294100 3.1 1010525
18:00+10w7138636 0.8 1011694
21:00+8wnw6138758 0.9 1012497
8 october, sat
sat800:00+8wnw6139197 0.3 1013591
03:00+8nw61184100 0.4 1015845
06:00+7wnw6129381 0.0 1017486
09:00+8nw5881100 0.1 1019911
12:00+10wnw686970 0.0 10201064
15:00+11wnw586520 0.0 10201184
18:00+7wsw36865 0.0 1021103
21:00+7wsw37915 0.0 1021133
9 october, sun
sun900:00+6sw389342 0.0 1021157
03:00+6sw31094100 0.0 1021202
06:00+6sw4119370 0.0 1020238
09:00+10sw6127848 0.0 1020457
12:00+13sw71160100 0.0 1019752
15:00+13sw71261100 0.0 1019727
18:00+10ssw61470100 0.0 1019428
21:00+10sw61471100 0.0 1019398